Skip Page Navigation
NASA JPL Caltech
NASA Logo - Jet Propulsion Laboratory + View the NASA Portal
+ Center for Near-Earth Object Studies
JPL Home Earth Solar System Stars & Galaxies Technology
JPL Solar System Dynamics
BODIES ORBITS EPHEMERIDES TOOLS PHYSICAL DATA DISCOVERY FAQ SITE MAP
JPL Small-Body Database Browser
Search: [ help ]  
183244 (2002 TM111)
Classification: Main-belt Asteroid          SPK-ID: 2183244
Ephemeris | Orbit Diagram | Orbital Elements | Mission Design | Physical Parameters | Discovery Circumstances | Close-Approach Data ]

[ show orbit diagram ]
Orbital Elements at Epoch 2459000.5 (2020-May-31.0) TDB
Reference: JPL 11 (heliocentric ecliptic J2000)
 Element Value Uncertainty (1-sigma)   Units 
e .236200810574635 6.7156e-08  
a 2.311500269525628 8.8188e-09 au
q 1.765522032220187 1.5804e-07 au
i 7.570527491159036 5.936e-06 deg
node 175.5655169653929 2.6276e-05 deg
peri 135.4711614520633 3.1075e-05 deg
M 34.56538300225318 1.1119e-05 deg
tp 2458877.252470618386
(2020-Jan-28.75247062)
3.9632e-05 TDB
period 1283.62849543686
3.51
7.346e-06
2.011e-08
d
yr
n .2804549768720119 1.605e-09 deg/d
Q 2.857478506831068 1.0902e-08 au
  Orbit Determination Parameters
   # obs. used (total)      309  
   data-arc span      8649 days (23.68 yr)  
   first obs. used      1995-09-17  
   last obs. used      2019-05-23  
   planetary ephem.      DE431  
   SB-pert. ephem.      SB431-N16  
   condition code      0  
   norm. resid. RMS      .63394  
   source      ORB  
   producer      Otto Matic  
   solution date      2020-Feb-24 19:33:03  

Additional Information
 Earth MOID = .761225 au 
 Jupiter MOID = 2.46614 au 
 T_jup = 3.535 
[ show covariance matrix ]

Ephemeris | Orbit Diagram | Orbital Elements | Mission Design | Physical Parameters | Discovery Circumstances | Close-Approach Data ]

Physical Parameter Table
Parameter Symbol Value Units Sigma Reference Notes
absolute magnitude H 17.0   n/a MPO475544  

183244 (2002 TM111)          Discovered 2002-Oct-03 by Spacewatch at Kitt Peak
Reference: 20080420/Numbers.arcLast Updated: 2008-04-23

[ hide close-approach data ]
Close-Approach Data   ...sorted by Date/Time (TDB)
Date/Time (TDB) Time Uncertainty
(days_HH:MM)
Body Nominal Distance (au) Minimum Distance (au) Maximum Distance (au) V-relative (km/s) V-infinity (km/s) JD (TDB) Time Uncertainty (minutes) Semi-major axis (km) Semi-minor axis (km) range-LOV angle (deg) N-sigma BP Orbit Ref. Reference Modified
2159-Jun-09 22:01 < 00:01 Juno 0.042657678835204 0.0426460810513996 0.0426692877537077 7.44421604623854 7.44421600792698 2509778.417636262 0.356550902781335 1235.51288052408 56.8877422045254 -62.1998894098203 99228.8943878906 T 11 CATAB v2.0f-lin.ifort 2020-Feb-24 19:33:19 2020-Feb-24 19:33
Ephemeris | Orbit Diagram | Orbital Elements | Mission Design | Physical Parameters | Discovery Circumstances | Close-Approach Data ]
ABOUT SSD CREDITS/AWARDS PRIVACY/COPYRIGHT GLOSSARY LINKS
FirstGov 2020-Aug-12 12:48 UT
(server date/time)  
NASA Home Page
Site Manager:   Ryan S. Park
Webmaster  Alan B. Chamberlin